Location: Unspecified
(29.0040°N, 0.0000°E)
Time: 04:26:54
(UTC+00:00)

ISS - Pass Details

Date: 17 January 2021
Orbit: 417 x 422 km, 51.6° (Epoch: 03 March)

Event Time Altitude Azimuth Distance (km) Brightness Sun altitude
Rises 18:17:53 0° 223° (SW) 2,353 1.2 -11.4°
Reaches altitude 10° 18:19:58 10° 224° (SW) 1,494 0.1 -11.8°
Maximum altitude 18:23:19 84° 313° (NW) 426 -3.8 -12.5°
Enters shadow 18:25:38 19° 41° (NE) 1,077 -2.2 -13.0°
